CW6617 Weather Reports


time (UTC)temp
C
wind
direction
speed
KPH
gust
KPH
rain 1hr
cm
rain 24hr
cm
rain mn
cm
humidity
%
barometer
mb
20260507084704 13 159 1.6 8.0 0.00 0.00 0.00 76 1016.4
20260507084204 12 159 4.8 14.5 0.00 0.00 0.00 77 1016.4
20260507083704 12 155 4.8 14.5 0.00 0.00 0.00 80 1016.4
20260507083204 12 175 3.2 11.3 0.00 0.00 0.00 83 1016.3
20260507081704 10 171 3.2 11.3 0.00 0.00 0.00 89 1016.4
20260507081203 10 168 3.2 11.3 0.00 0.00 0.00 90 1016.4
20260507080704 10 173 6.4 11.3 0.00 0.00 0.00 92 1016.4
20260507080204 9 174 6.4 12.9 0.00 0.00 0.00 93 1016.3
20260507073704 8 165 4.8 9.7 0.00 0.00 0.00 95 1016.2
20260507073203 8 128 3.2 8.0 0.00 0.00 0.00 95 1016.3
20260507071704 7 105 1.6 8.0 0.00 0.00 0.00 95 1016.2
20260507071203 7 53 3.2 8.0 0.00 0.00 0.00 96 1016.2
20260507070704 6 16 3.2 8.0 0.00 0.00 0.00 95 1016.2
20260507070203 6 47 0.0 3.2 0.00 0.00 0.00 95 1016.2
20260507064703 5 45 0.0 0.0 0.00 0.00 0.00 94 1016.3
20260507064204 5 45 0.0 0.0 0.00 0.00 0.00 94 1016.2
20260507063704 5 45 0.0 0.0 0.00 0.00 0.00 94 1016.2
20260507063204 5 45 0.0 0.0 0.00 0.00 0.00 94 1016.2
20260507061203 3 46 0.0 0.0 0.00 0.00 0.00 93 1016.2
20260507060704 3 46 0.0 0.0 0.00 0.00 0.00 93 1016.1
20260507060203 3 46 0.0 0.0 0.00 0.00 0.00 93 1016.2
20260507054703 3 46 0.0 0.0 0.00 0.00 0.00 92 1016.1
20260507054204 2 46 0.0 0.0 0.00 0.00 0.00 92 1016.0
20260507053704 2 46 0.0 0.0 0.00 0.00 0.00 92 1016.0
20260507051704 2 46 0.0 0.0 0.00 0.00 0.00 91 1015.9
20260507051204 2 46 0.0 0.0 0.00 0.00 0.00 91 1015.8
20260507050204 2 46 0.0 0.0 0.00 0.00 0.00 91 1015.8
20260507044703 2 46 0.0 0.0 0.00 0.00 0.00 91 1015.7
20260507044204 2 46 0.0 0.0 0.00 0.00 0.00 91 1015.7
20260507043704 2 46 0.0 0.0 0.00 0.00 0.00 91 1015.7
20260507043204 3 46 0.0 0.0 0.00 0.00 0.00 91 1015.6
20260507041204 3 46 0.0 0.0 0.00 0.00 0.00 91 1015.7
20260507040704 3 46 0.0 0.0 0.00 0.00 0.00 91 1015.6
20260507040204 3 46 0.0 0.0 0.00 0.00 0.00 91 1015.6
20260507034704 3 46 0.0 0.0 0.00 0.00 0.00 91 1015.6
20260507034204 3 46 0.0 0.0 0.00 0.00 0.00 91 1015.6
20260507033703 3 46 0.0 0.0 0.00 0.00 0.00 90 1015.6
20260507033204 3 46 0.0 0.0 0.00 0.00 0.00 90 1015.6
20260507031704 3 46 0.0 0.0 0.00 0.00 0.00 91 1015.6
20260507031203 3 46 0.0 0.0 0.00 0.00 0.00 91 1015.6
20260507030703 3 46 0.0 0.0 0.00 0.00 0.00 90 1015.6
20260507030204 4 46 0.0 0.0 0.00 0.00 0.00 90 1015.6
20260507024703 4 46 0.0 0.0 0.00 0.00 0.00 90 1015.6
20260507023205 4 46 0.0 0.0 0.00 0.00 0.00 90 1015.5
20260507021704 4 46 0.0 0.0 0.00 0.00 0.00 89 1015.6
20260507021204 4 46 0.0 0.0 0.00 0.00 0.00 89 1015.6
20260507020703 4 46 0.0 0.0 0.00 0.00 0.00 89 1015.5
20260507014704 5 46 0.0 0.0 0.00 0.00 0.00 89 1015.2
20260507014204 5 46 0.0 0.0 0.00 0.00 0.00 89 1015.3
20260507013204 5 46 0.0 0.0 0.00 0.00 0.00 89 1015.3
20260507011704 5 46 0.0 0.0 0.00 0.00 0.00 89 1015.3
20260507010703 5 46 0.0 0.0 0.00 0.00 0.00 88 1015.3
20260507010204 5 46 0.0 0.0 0.00 0.00 0.00 88 1015.3
20260507004704 5 46 0.0 0.0 0.00 0.00 0.00 87 1015.3
20260507004203 5 46 0.0 0.0 0.00 0.00 0.00 87 1015.3
20260507003704 6 46 0.0 0.0 0.00 0.00 0.00 87 1015.3
20260507003204 6 46 0.0 0.0 0.00 0.00 0.00 87 1015.3
20260507001704 6 46 0.0 0.0 0.00 0.00 0.00 86 1015.4
20260507001203 6 46 0.0 0.0 0.00 0.00 0.00 86 1015.4
20260507000703 6 46 0.0 0.0 0.00 0.00 0.00 86 1015.4
20260507000205 6 46 0.0 0.0 0.00 0.00 0.00 85 1015.4
20260506234704 6 46 0.0 0.0 0.00 0.00 0.00 85 1015.4
20260506234204 6 46 0.0 0.0 0.00 0.00 0.00 85 1015.3
20260506233704 7 46 0.0 0.0 0.00 0.00 0.00 84 1015.2
20260506233204 7 46 0.0 0.0 0.00 0.00 0.00 84 1015.3
20260506231703 7 46 0.0 0.0 0.00 0.00 0.00 83 1015.2
20260506231204 7 46 0.0 0.0 0.00 0.00 0.00 83 1015.1
20260506230703 7 46 0.0 0.0 0.00 0.00 0.00 82 1015.1
20260506230205 7 46 0.0 0.0 0.00 0.00 0.00 82 1015.2
20260506224706 8 46 0.0 0.0 0.00 0.00 0.00 81 1015.2
20260506224204 8 46 0.0 0.0 0.00 0.00 0.00 81 1015.2
20260506223704 8 46 0.0 0.0 0.00 0.00 0.00 81 1015.1
20260506221704 8 46 0.0 0.0 0.00 0.00 0.00 79 1015.1
20260506221204 9 46 0.0 3.2 0.00 0.00 0.00 79 1015.1
20260506220704 9 51 0.0 1.6 0.00 0.00 0.00 78 1015.0
20260506220204 9 51 1.6 8.0 0.00 0.00 0.00 78 1014.9
20260506214704 10 46 0.0 3.2 0.00 0.00 0.00 76 1014.8
20260506214204 10 46 0.0 3.2 0.00 0.00 0.00 76 1014.9
20260506213704 10 47 1.6 4.8 0.00 0.00 0.00 75 1014.9
20260506213203 10 45 1.6 8.0 0.00 0.00 0.00 75 1014.9
20260506211703 10 57 1.6 3.2 0.00 0.00 0.00 74 1014.9
20260506211204 10 59 1.6 4.8 0.00 0.00 0.00 73 1014.9
20260506210204 10 58 1.6 8.0 0.00 0.00 0.00 72 1014.8
20260506204703 11 57 3.2 9.7 0.00 0.00 0.00 71 1014.7
20260506204204 11 37 3.2 11.3 0.00 0.00 0.00 71 1014.6
20260506203704 11 37 3.2 11.3 0.00 0.00 0.00 70 1014.7
20260506203204 11 69 1.6 11.3 0.00 0.00 0.00 69 1014.6
20260506201704 11 60 4.8 12.9 0.00 0.00 0.00 67 1014.4
20260506201204 11 5 1.6 9.7 0.00 0.00 0.00 66 1014.4
20260506200703 11 355 0.0 4.8 0.00 0.00 0.00 67 1014.4
20260506200204 11 61 1.6 11.3 0.00 0.00 0.00 67 1014.4
20260506194704 11 309 0.0 3.2 0.00 0.00 0.00 68 1014.0
20260506194204 11 313 1.6 4.8 0.00 0.00 0.00 68 1013.9
20260506191704 12 333 1.6 8.0 0.00 0.00 0.00 67 1013.7
20260506191204 12 302 1.6 4.8 0.00 0.00 0.00 67 1013.7
20260506190704 12 304 1.6 3.2 0.00 0.00 0.00 67 1013.7
20260506190204 12 304 3.2 8.0 0.00 0.00 0.00 66 1013.6
20260506184704 12 350 1.6 4.8 0.00 0.00 0.00 65 1013.6
20260506184203 12 353 1.6 8.0 0.00 0.00 0.00 66 1013.6
20260506183704 12 357 1.6 4.8 0.00 0.00 0.00 65 1013.5
20260506181704 12 20 4.8 9.7 0.00 0.00 0.00 64 1013.3
20260506181204 12 315 3.2 9.7 0.00 0.00 0.00 64 1013.3
20260506180704 12 337 3.2 9.7 0.00 0.00 0.00 63 1013.2
20260506180203 12 352 1.6 14.5 0.00 0.00 0.00 63 1013.2
20260506174704 12 304 6.4 14.5 0.00 0.00 0.00 63 1013.1
20260506174204 12 299 4.8 14.5 0.00 0.00 0.00 62 1013.1
20260506173704 12 12 6.4 14.5 0.00 0.00 0.00 62 1013.1
20260506173204 12 305 3.2 14.5 0.00 0.00 0.00 63 1013.0
20260506170703 13 25 3.2 8.0 0.00 0.00 0.00 63 1013.0
20260506170203 13 310 3.2 14.5 0.00 0.00 0.00 63 1013.0
20260506164704 13 73 3.2 12.9 0.00 0.00 0.00 61 1012.8
20260506164204 14 328 4.8 16.1 0.00 0.00 0.00 60 1012.9
20260506163204 14 50 4.8 19.3 0.00 0.00 0.00 58 1012.9
20260506161703 13 12 4.8 12.9 0.00 0.00 0.00 59 1012.9
20260506161204 13 53 9.7 16.1 0.00 0.00 0.00 58 1012.9
20260506160703 14 60 9.7 16.1 0.00 0.00 0.00 57 1012.9
20260506154703 14 56 9.7 20.9 0.00 0.00 0.00 58 1012.9
20260506154204 15 52 9.7 20.9 0.00 0.00 0.00 57 1012.8
20260506153204 15 308 6.4 16.1 0.00 0.00 0.00 60 1012.9
20260506151705 13 354 6.4 14.5 0.00 0.00 0.00 63 1012.9
20260506151203 13 20 4.8 19.3 0.00 0.00 0.00 62 1013.0
20260506150704 13 50 14.5 22.5 0.00 0.00 0.00 62 1013.0
20260506150205 13 11 4.8 22.5 0.00 0.00 0.00 61 1013.1
20260506144704 15 312 3.2 20.9 0.00 0.00 0.00 59 1013.1
20260506144204 15 4 4.8 16.1 0.00 0.00 0.00 60 1013.1
20260506143703 15 53 11.3 22.5 0.00 0.00 0.00 59 1013.1
20260506143203 15 359 9.7 20.9 0.00 0.00 0.00 59 1013.1
20260506141704 15 313 9.7 25.7 0.00 0.00 0.00 59 1013.1
20260506141204 15 359 8.0 22.5 0.00 0.00 0.00 59 1013.0
20260506140704 15 310 4.8 16.1 0.00 0.00 0.00 58 1013.1
20260506140204 14 66 8.0 24.1 0.00 0.00 0.00 61 1013.1
20260506134204 14 24 8.0 22.5 0.00 0.00 0.00 61 1013.1
20260506133704 15 14 8.0 24.1 0.00 0.00 0.00 59 1013.1
20260506133204 15 44 8.0 22.5 0.00 0.00 0.00 60 1013.1
20260506131704 14 27 4.8 22.5 0.00 0.00 0.00 58 1013.0
20260506131205 13 25 8.0 24.1 0.00 0.00 0.00 58 1013.1
20260506130704 15 353 8.0 22.5 0.00 0.00 0.00 55 1013.1
20260506130204 15 11 9.7 25.7 0.00 0.00 0.00 55 1013.1
20260506124704 15 327 9.7 19.3 0.00 0.00 0.00 56 1013.1
20260506124204 15 35 16.1 22.5 0.00 0.00 0.00 52 1013.0
20260506123703 15 22 9.7 20.9 0.00 0.00 0.00 56 1013.0
20260506123204 15 46 9.7 24.1 0.00 0.00 0.00 55 1013.0
20260506121203 14 43 9.7 24.1 0.00 0.00 0.00 58 1013.2
20260506120703 14 46 11.3 20.9 0.00 0.00 0.00 55 1013.1
20260506114704 14 48 8.0 27.4 0.00 0.00 0.00 54 1013.2
20260506114203 14 42 9.7 20.9 0.00 0.00 0.00 55 1013.3
20260506113704 14 310 12.9 22.5 0.00 0.00 0.00 57 1013.2
20260506111703 14 41 11.3 22.5 0.00 0.00 0.00 55 1013.3
20260506110703 14 345 11.3 22.5 0.00 0.00 0.00 55 1013.3
20260506110204 15 325 11.3 20.9 0.00 0.00 0.00 58 1013.3
20260506104704 14 313 9.7 19.3 0.00 0.00 0.00 55 1013.2
20260506103704 13 55 16.1 32.2 0.00 0.00 0.00 58 1013.3
20260506101704 13 332 9.7 24.1 0.00 0.00 0.00 64 1013.4
20260506101204 13 36 9.7 20.9 0.00 0.00 0.00 63 1013.4
20260506100704 13 341 8.0 20.9 0.00 0.00 0.00 63 1013.4
20260506100204 12 302 8.0 20.9 0.00 0.00 0.00 65 1013.5
20260506094703 12 23 9.7 20.9 0.00 0.00 0.00 64 1013.5
20260506094203 12 30 12.9 22.5 0.00 0.00 0.00 63 1013.6
20260506093704 12 8 9.7 20.9 0.00 0.00 0.00 63 1013.4
20260506093204 12 54 9.7 20.9 0.00 0.00 0.00 65 1013.4
20260506091703 12 325 8.0 22.5 0.00 0.00 0.00 68 1013.5
20260506091204 11 325 11.3 20.9 0.00 0.00 0.00 68 1013.5
20260506090703 11 321 9.7 20.9 0.00 0.00 0.00 68 1013.5
20260506090203 11 350 9.7 22.5 0.00 0.00 0.00 70 1013.5